Location: Ab? ar R?sh Ba?r?
(24.1861°N, 32.8847°E)
Time: 11:28:51
(UTC+00:00)

CZ-3B Rocket - Pass Details

Date: 24 October 2021
Orbit: 555 x 35800 km, 18.2° (Epoch: 03 December)

Event Time Altitude Azimuth Distance (km) Brightness Sun altitude
Rises 17:11:29 0° 250° (WSW) 2,866 6.1 -27.3°
Reaches altitude 10° 17:13:00 10° 244° (WSW) 2,186 5.2 -27.6°
Maximum altitude 17:17:12 53° 165° (SSE) 1,452 3.2 -28.6°
Enters shadow 17:18:31 48° 132° (SE) 1,795 3.5 -28.9°
